Location: Austin
(30.3000°N, 97.7500°W)
Time: 14:46:07
(UTC-05:00)

Cosmos 2292 Rocket - Pass Details

Date: 20 November 2023
Orbit: 370 x 1315 km, 83.0° (Epoch: 06 October)

Event Time Altitude Azimuth Distance (km) Brightness Sun altitude
Rises 18:39:41 0° 180° (S) 2,539 6.9 -14.6°
Reaches altitude 10° 18:41:31 10° 179° (S) 1,766 6.1 -15.0°
Maximum altitude 18:45:21 76° 93° (E) 655 3.5 -15.8°
Drops below altitude 10° 18:50:31 10° 9° (N) 2,362 6.3 -16.9°
Sets 18:53:18 0° 8° (N) 3,488 7.2 -17.5°
